Regional Weather Roundup
Issued by NWS

Home | Current Version | Previous Version | Graphics & Text | Print | Product List | Glossary On
Versions: 1 2 3 4 5 6 7 8 9 10 11 12 13 14 15 16 17 18 19 20 21 22 23 24 25 26 27 28
000
ASUS45 KSLC 241510
RWRUT

UTAH REGIONAL WEATHER ROUNDUP
NATIONAL WEATHER SERVICE SALT LAKE CITY UT
900 AM MDT SAT JUN 24 2017

UTZ001>011-023>025-241600-

NORTHERN UTAH

CITY           SKY/WX    TMP DP  RH WIND       PRES   REMARKS
BRIGHAM CITY   SUNNY     63  42  47 CALM      30.23R
HILL AFB       SUNNY     64  37  37 E18       30.24R
LOGAN          SUNNY     62  41  46 CALM      30.25F
OGDEN          SUNNY     68  39  34 VRB6      30.22R
SALT LAKE CITY SUNNY     72  39  30 S5        30.21R
TOOELE VALLEY  SUNNY     70  45  40 CALM      30.23R
WENDOVER         N/A     73  31  21 NE7       30.22S
HEBER CITY     SUNNY     55  36  47 CALM      30.32S
WEST JORDAN    SUNNY     70  49  46 SE6       30.24S

$$

UTZ011>015-024>027-241600-

CENTRAL/NORTHEAST UTAH

CITY           SKY/WX    TMP DP  RH WIND       PRES   REMARKS
PROVO AIRPORT  SUNNY     65  39  38 SE6       30.25S
MOAB/CANYONLAN SUNNY     78  21  12 CALM      30.14S
DELTA          SUNNY     68  28  22 CALM      30.24R
PRICE          SUNNY     74  20  13 W5        30.26R
ROOSEVELT      SUNNY     68  32  26 E3        30.30R
VERNAL         SUNNY     71  34  25 E12       30.27R

$$

UTZ013>016-019>022-027-241600-

SOUTHERN UTAH

CITY           SKY/WX    TMP DP  RH WIND       PRES   REMARKS
BRYCE CANYON   SUNNY     68  25  19 N6        30.39S
CEDAR CITY     SUNNY     69  25  19 CALM      30.25R
MILFORD        SUNNY     70  24  17 N7        30.23S
ST GEORGE      SUNNY     87  27  11 N9        30.02R
HANKSVILLE     SUNNY     75  25  15 SE3       30.18S
BLANDING       SUNNY     75  24  15 S3        30.31R

$$

REGIONAL REPORTS     COLORADO/ARIZONA

CITY           SKY/WX    TMP DP  RH WIND       PRES   REMARKS
CRAIG, CO      SUNNY     58  33  39 CALM      30.35S
GRAND JUNCTION SUNNY     74  31  20 SE5       30.18S
RIFLE, CO      SUNNY     67  32  27 NE6       30.26S
MONTROSE, CO   SUNNY     71  30  21 SE3       30.26S
CORTEZ, CO     SUNNY     66  34  30 CALM      30.25S
COLORADO CITY    N/A     77  34  20 NW5       30.18R
PAGE, AZ       SUNNY     83  20   9 CALM      30.11S
GRAND CANYON   SUNNY     82  20  10 NE9       30.29R
KINGMAN, AZ    SUNNY     89  41  18 W3        30.00R
FLAGSTAFF, AZ  SUNNY     79  20  11 NE12      30.31R

$$

REGIONAL REPORTS    NEVADA/IDAHO/WYOMING

CITY           SKY/WX    TMP DP  RH WIND       PRES   REMARKS
LAS VEGAS, NV  MOSUNNY   97  17   5 NE15      29.92R HX  90
ELY, NY        SUNNY     63  25  23 S5        30.33S
ELKO, NV       SUNNY     61  33  35 CALM      30.29S
POCATELLO, ID  SUNNY     63  43  48 CALM      30.27R
BURLEY, ID     SUNNY     62  44  51 CALM      30.24R
FORT BRIDGER,    N/A     56  32  40 E3        30.43R
EVANSTON, WY   SUNNY     56  35  45 NE6       30.39S
ROCK SPRINGS,  SUNNY     56  30  37 NE3       30.40S
KEMMERER, WY     N/A     55  32  41 E5        30.42R

$$




USA.gov is the U.S. government's official web portal to all federal, state and local government web resources and services.